Stations météo

réclame
Mon MeteoGroup
Fair Isle, Grande-Bretagne (3008): Température de l'air & dewpoint: 12.02.2019 19:00:00 - 18.02.2019 19:00:00 (GMT)Fair Isle, Grande-Bretagne (3008): Température de l'air -20cm & Température de l'air -100cm: 12.02.2019 19:00:00 - 18.02.2019 19:00:00 (GMT)Fair Isle, Grande-Bretagne (3008): Vitesse du vent & gusts: 12.02.2019 19:00:00 - 18.02.2019 19:00:00 (GMT)Fair Isle, Grande-Bretagne (3008): Direction du vent: 12.02.2019 19:00:00 - 18.02.2019 19:00:00 (GMT)Fair Isle, Grande-Bretagne (3008): reduced air pressure: 12.02.2019 19:00:00 - 18.02.2019 19:00:00 (GMT)Fair Isle, Grande-Bretagne (3008): visibility: 12.02.2019 19:00:00 - 18.02.2019 19:00:00 (GMT)Fair Isle, Grande-Bretagne (3008): Quantités de précipitations: 12.02.2019 19:00:00 - 18.02.2019 19:00:00 (GMT)
Date & Time tt [°C] td [°C] tt -20cm [°C] tt -100cm [°C] ff [km/h] ff [knt] fx [km/h] fx [knt] dd ppp [hPa] vv [km] rr [mm]
18.02.2019 19:00:00 - - - - - - - - - - - -
18.02.2019 18:00:00 6,8 5,3 - - 42 23 61 33 SW 992,1 16 0,0
18.02.2019 17:00:00 7,0 5,2 - - 42 23 59 32 SSW 992,1 14 0,0
18.02.2019 16:00:00 7,7 5,1 - - 42 23 68 37 SSW 991,9 13 0,0
18.02.2019 15:00:00 7,8 4,9 - - 52 28 68 37 S 992,3 13 0,0
18.02.2019 14:00:00 7,8 4,3 - - 48 26 67 36 S 992,8 15 0,0
18.02.2019 13:00:00 7,8 4,5 - - 44 24 67 36 S 993,8 17 0,0
18.02.2019 12:00:00 7,9 4,8 - - 39 21 55 30 S 994,6 18 0,0
18.02.2019 11:00:00 8,1 4,9 - - 39 21 61 33 S 995,2 17 0,0
18.02.2019 10:00:00 7,8 4,4 - - 41 22 57 31 SSW 995,7 17 0,0
18.02.2019 09:00:00 7,4 5,2 6,5 6,2 41 22 61 33 S 996,0 14 0,0
18.02.2019 08:00:00 7,2 5,2 - - 42 23 59 32 S 996,0 13 0,0
18.02.2019 07:00:00 7,3 5,2 - - 46 25 59 32 S 996,0 13 0,0
18.02.2019 06:00:00 7,3 5,3 - - 46 25 61 33 S 996,1 11 0,0
18.02.2019 05:00:00 7,4 5,7 - - 44 24 57 31 S 996,4 12 0,0
18.02.2019 04:00:00 7,4 5,7 - - 42 23 61 33 S 996,9 10 0,0
18.02.2019 03:00:00 7,3 5,6 - - 44 24 63 34 S 997,6 10 0,0
18.02.2019 02:00:00 7,4 5,6 - - 39 21 59 32 S 998,2 11 0,0
18.02.2019 01:00:00 7,5 5,4 - - 37 20 54 29 S 998,8 12 0,0
18.02.2019 00:00:00 7,6 5,5 - - 41 22 55 30 S 999,3 14 0,0
17.02.2019 23:00:00 7,5 5,4 - - 35 19 46 25 SSE 999,8 18 0,0
17.02.2019 22:00:00 7,2 4,1 - - 34 18 48 26 S 1000,1 20 0,0
17.02.2019 21:00:00 7,3 4,6 - - 35 19 48 26 SSW 1000,2 20 0,0
17.02.2019 20:00:00 7,3 5,4 - - 34 18 46 25 SSW 1000,1 12 0,0
17.02.2019 19:00:00 7,8 6,5 - - 34 18 50 27 SSW 999,3 8 0,0
17.02.2019 18:00:00 8,2 6,9 - - 48 26 63 34 S 998,4 9 0,0
17.02.2019 17:00:00 8,0 6,8 - - 48 26 74 40 S 997,7 8 0,0
17.02.2019 16:00:00 8,0 6,7 - - 50 27 70 38 SSE 997,4 8 0,0
17.02.2019 15:00:00 8,4 6,6 - - 48 26 72 39 SSE 998,4 10 0,0
17.02.2019 14:00:00 8,3 6,8 - - 44 24 67 36 SSE 999,1 9 0,0
17.02.2019 13:00:00 8,4 6,9 - - 46 25 65 35 SSE 1000,3 9 0,0
17.02.2019 12:00:00 8,4 7,3 - - 44 24 70 38 SSE 1001,6 10 0,0
17.02.2019 11:00:00 9,1 7,5 - - 48 26 63 34 S 1001,7 11 -
17.02.2019 10:00:00 8,6 7,4 - - 41 22 57 31 S 1002,3 11 0,0
17.02.2019 09:00:00 8,5 7,5 6,2 6,0 39 21 55 30 S 1002,7 11 0,0
17.02.2019 08:00:00 8,3 7,6 - - 35 19 48 26 S 1003,0 10 0,0
17.02.2019 07:00:00 8,0 7,5 - - 28 15 48 26 S 1003,2 10 0,0
17.02.2019 06:00:00 7,8 7,2 - - 34 18 - - S 1003,7 10 0,0
17.02.2019 05:00:00 7,4 6,7 - - 29 16 - - SSE 1004,3 12 0,0
17.02.2019 04:00:00 7,3 6,6 - - 28 15 - - S 1005,0 12 0,0
17.02.2019 03:00:00 7,3 6,6 - - 28 15 - - SSE 1006,0 12 0,0
17.02.2019 02:00:00 7,4 6,5 - - 31 17 - - SSE 1006,6 13 0,0
17.02.2019 01:00:00 7,4 6,4 - - 24 13 - - SSE 1007,2 21 0,0
17.02.2019 00:00:00 7,8 6,7 - - 21 11 - - SSE 1008,3 20 0,0
16.02.2019 23:00:00 7,9 6,8 - - 21 11 - - SSE 1009,2 21 0,0
16.02.2019 22:00:00 7,8 6,6 - - 22 12 - - SSE 1009,2 22 0,0
16.02.2019 21:00:00 7,5 7,0 - - 21 11 - - SSE 1009,6 26 0,0
16.02.2019 20:00:00 7,5 7,2 - - 18 10 - - SE 1009,9 19 0,0
16.02.2019 19:00:00 7,4 7,2 - - 16 9 - - SE 1010,0 15 0,0
16.02.2019 18:00:00 7,4 7,1 - - 18 10 - - SE 1010,4 11 0,0
16.02.2019 17:00:00 7,1 6,7 - - 22 12 - - ESE 1010,4 9 0,0
16.02.2019 16:00:00 6,8 6,1 - - 26 14 - - E 1010,5 24 0,0
16.02.2019 15:00:00 6,9 6,0 - - 22 12 - - E 1011,1 12 0,0
16.02.2019 14:00:00 6,9 5,5 - - 21 11 - - E 1011,7 21 0,0
16.02.2019 13:00:00 6,8 5,5 - - 18 10 - - ESE 1011,8 35 0,0
16.02.2019 12:00:00 7,0 5,6 - - 16 9 - - E 1011,3 30 0,0
16.02.2019 11:00:00 6,7 5,3 - - 21 11 - - ENE 1010,1 30 0,0
16.02.2019 10:00:00 6,3 5,4 - - 13 7 - - ESE 1010,8 24 0,0
16.02.2019 09:00:00 6,1 5,6 6,2 6,0 13 7 - - E 1010,3 19 0,0
16.02.2019 08:00:00 5,8 5,4 - - 16 9 - - NE 1009,2 24 0,0
16.02.2019 07:00:00 5,9 5,6 - - 26 14 - - NE 1007,5 22 0,0
16.02.2019 06:00:00 5,6 5,1 - - 29 16 - - NNE 1007,3 30 0,0
16.02.2019 05:00:00 6,3 6,1 - - 26 14 - - NNE 1006,6 15 0,2
16.02.2019 04:00:00 6,6 6,6 - - 24 13 - - NNE 1005,9 14 1,4
16.02.2019 03:00:00 7,5 7,3 - - 8 4 - - W 1005,6 3,1 2,6
16.02.2019 02:00:00 7,5 7,3 - - 11 6 - - SW 1005,8 1,9 6,0
16.02.2019 01:00:00 7,7 7,4 - - 21 11 - - SW 1006,7 5 4,2
16.02.2019 00:00:00 7,8 7,3 - - 15 8 - - SSW 1006,7 5 1,6
15.02.2019 23:00:00 7,8 7,1 - - 18 10 - - SSW 1007,3 6 1,4
15.02.2019 22:00:00 8,1 7,1 - - 21 11 - - SSW 1007,9 8 1,0
15.02.2019 21:00:00 8,4 6,8 - - 22 12 - - SSW 1008,1 7 0,6
15.02.2019 20:00:00 8,7 6,6 - - 21 11 - - SSW 1008,0 12 0,0
15.02.2019 19:00:00 8,2 6,3 - - 21 11 - - S 1008,2 10 0,0
15.02.2019 18:00:00 8,4 5,7 - - 26 14 - - SSW 1008,1 12 0,0
15.02.2019 17:00:00 8,5 5,1 - - 31 17 - - SSW 1008,0 14 0,0
15.02.2019 16:00:00 8,2 4,6 - - 35 19 48 26 S 1008,1 15 0,0
15.02.2019 15:00:00 8,5 4,1 - - 37 20 52 28 S 1008,4 17 0,0
15.02.2019 14:00:00 8,8 4,2 - - 37 20 48 26 S 1009,4 16 0,0
15.02.2019 13:00:00 9,4 3,8 - - 37 20 48 26 S 1010,6 21 0,0
15.02.2019 12:00:00 9,3 4,5 - - 26 14 52 28 S 1011,6 23 0,0
15.02.2019 11:00:00 9,0 3,9 - - 39 21 48 26 S 1012,0 24 0,0
15.02.2019 10:00:00 9,3 3,6 - - 34 18 57 31 SSW 1012,9 16 0,0
15.02.2019 09:00:00 8,4 4,2 6,0 5,9 35 19 48 26 S 1013,4 18 0,0
15.02.2019 08:00:00 8,3 4,8 - - 29 16 - - S 1013,7 18 0,0
15.02.2019 07:00:00 8,8 5,1 - - 24 13 - - SSW 1014,3 19 0,0
15.02.2019 06:00:00 8,3 5,8 - - 22 12 - - S 1015,0 14 0,0
15.02.2019 05:00:00 7,7 6,1 - - 16 9 - - S 1015,5 13 0,0
15.02.2019 04:00:00 7,7 6,4 - - 16 9 - - S 1016,0 14 0,0
15.02.2019 03:00:00 7,7 6,7 - - 24 13 - - S 1016,6 12 0,0
15.02.2019 02:00:00 7,6 6,9 - - 21 11 - - S 1017,4 12 0,0
15.02.2019 01:00:00 7,7 7,2 - - 13 7 - - S 1018,3 12 0,0
15.02.2019 00:00:00 7,7 7,1 - - 16 9 - - S 1018,5 10 0,0
14.02.2019 23:00:00 7,5 7,0 - - 16 9 - - S 1018,9 11 0,0
14.02.2019 22:00:00 7,8 6,9 - - 21 11 - - S 1019,2 14 0,0
14.02.2019 21:00:00 8,5 7,3 - - 18 10 - - SSW 1019,4 15 0,0
14.02.2019 20:00:00 8,5 7,5 - - 26 14 - - S 1019,6 15 0,0
14.02.2019 19:00:00 8,5 7,4 - - 29 16 - - SSW 1020,2 18 0,0
14.02.2019 18:00:00 8,7 7,6 - - 26 14 - - SSW 1020,3 17 0,0
14.02.2019 17:00:00 8,3 7,4 - - 22 12 - - SSW 1020,1 8 0,0
14.02.2019 16:00:00 8,3 7,7 - - 28 15 - - SSW 1020,6 14 0,0
14.02.2019 15:00:00 7,9 7,4 - - 16 9 - - SSE 1020,6 10 0,0
14.02.2019 14:00:00 8,2 7,7 - - 18 10 - - S 1021,2 17 0,0
14.02.2019 13:00:00 7,9 7,3 - - 21 11 - - SW 1021,3 8 0,0
14.02.2019 12:00:00 7,9 7,2 - - 21 11 - - SW 1021,6 7 0,0
14.02.2019 11:00:00 8,0 6,9 - - 26 14 - - SW 1020,9 10 0,0
14.02.2019 10:00:00 8,1 6,5 - - 29 16 52 28 WSW 1019,9 11 0,0
14.02.2019 09:00:00 8,2 6,5 5,7 5,7 41 22 55 30 WSW 1019,0 10 0,0
14.02.2019 08:00:00 8,4 7,4 - - 41 22 57 31 WSW 1018,5 9 0,0
14.02.2019 07:00:00 8,3 7,1 - - 41 22 59 32 WSW 1017,5 9 0,0
14.02.2019 06:00:00 8,6 7,4 - - 42 23 63 34 WSW 1017,1 15 0,0
14.02.2019 05:00:00 8,5 6,9 - - 34 18 55 30 SSW 1016,0 8 0,0
14.02.2019 04:00:00 8,9 7,1 - - 39 21 52 28 SSW 1015,1 12 0,0
14.02.2019 03:00:00 8,4 6,6 - - 39 21 55 30 SSW 1014,7 9 0,0
14.02.2019 02:00:00 8,7 6,8 - - 39 21 57 31 SSW 1014,9 10 0,0
14.02.2019 01:00:00 8,5 6,9 - - 44 24 61 33 SSW 1014,5 9 0,0
14.02.2019 00:00:00 8,1 6,7 - - 42 23 57 31 S 1014,3 11 0,0
13.02.2019 23:00:00 8,3 6,8 - - 46 25 59 32 S 1014,4 12 0,0
13.02.2019 22:00:00 8,3 6,8 - - 41 22 52 28 S 1015,1 14 0,0
13.02.2019 21:00:00 8,6 6,9 - - 41 22 52 28 SSW 1014,5 12 0,0
13.02.2019 20:00:00 8,9 7,1 - - 41 22 52 28 S 1014,3 17 0,0
13.02.2019 19:00:00 9,1 7,1 - - 35 19 54 29 SSW 1014,2 13 0,0
13.02.2019 18:00:00 8,6 7,3 - - 31 17 - - SSW 1015,0 10 0,0
13.02.2019 17:00:00 8,7 7,3 - - 31 17 - - SSW 1015,2 15 0,0
13.02.2019 16:00:00 8,7 7,4 - - 28 15 - - SSW 1015,5 10 0,0
13.02.2019 15:00:00 8,8 7,5 - - 31 17 46 25 SSW 1015,3 12 0,0
13.02.2019 14:00:00 8,7 7,7 - - 31 17 - - S 1015,7 18 0,0
13.02.2019 13:00:00 8,4 7,5 - - 31 17 - - S 1015,7 15 0,0
13.02.2019 12:00:00 8,6 7,7 - - 28 15 - - S 1015,8 14 0,0
13.02.2019 11:00:00 8,0 7,1 - - 26 14 - - S 1016,2 14 0,0
13.02.2019 10:00:00 7,3 6,3 - - 31 17 - - S 1016,5 10 0,6
13.02.2019 09:00:00 7,3 5,6 5,5 5,7 29 16 - - S 1016,8 8 0,2
13.02.2019 08:00:00 7,7 5,3 - - 29 16 - - S 1016,8 15 0,0
13.02.2019 07:00:00 7,1 6,0 - - 22 12 - - SSE 1017,2 10 0,0
13.02.2019 06:00:00 6,8 5,6 - - 22 12 - - S 1018,0 9 0,0
13.02.2019 05:00:00 7,0 5,6 - - 22 12 - - SSW 1019,0 7 0,0
13.02.2019 04:00:00 7,4 6,5 - - 26 14 - - SW 1019,2 5 0,0
13.02.2019 03:00:00 7,4 5,6 - - 28 15 - - WSW 1019,0 6 0,0
13.02.2019 02:00:00 7,6 5,6 - - 31 17 59 32 WSW 1018,5 6 0,0
13.02.2019 01:00:00 7,9 5,2 - - 42 23 61 33 W 1017,3 7 0,0
13.02.2019 00:00:00 8,0 5,3 - - 46 25 72 39 W 1016,6 7 0,0
12.02.2019 23:00:00 8,1 5,0 - - 50 27 76 41 W 1015,8 7 0,0
12.02.2019 22:00:00 8,4 5,0 - - 54 29 80 43 W 1015,4 7 0,0
12.02.2019 21:00:00 8,4 5,0 - - 57 31 83 45 WSW 1014,6 6 0,0
12.02.2019 20:00:00 8,6 5,4 - - 55 30 83 45 WSW 1013,4 6 0,0
12.02.2019 19:00:00 9,1 5,8 - - 52 28 93 50 WSW 1012,4 8 0,0

tt = Température de l'air
td = dewpoint
tt -20cm = Température de l'air -20cm
tt -100cm = Température de l'air -100cm
ff = Vitesse du vent
fx = gusts
dd = Direction du vent
ppp = reduced air pressure
vv = visibility
rr = Quantités de précipitations

stations d'obs. à proximité